Regional Weather Roundup
Issued by NWS Grand Forks, ND

Home | Current Version | Previous Version | Graphics & Text | Print | Product List | Glossary On
Versions: 1 2 3 4 5 6 7 8 9 10 11 12 13 14 15 16 17 18 19 20 21 22 23 24 25 26 27 28 29 30 31 32 33 34 35 36 37 38 39 40 41 42 43 44 45 46 47 48 49 50
000
ASUS43 KFGF 060510
RWRFGF
PRAIRIE TO PINES  WEATHER ROUNDUP
NATIONAL WEATHER SERVICE EASTERN NORTH DAKOTA/GRAND FORKS ND
1100 PM CST MON DEC 05 2016

 **SATELLITE DATA USED TO AUGMENT SKY COVER AT AUTOMATED STATIONS**
 *****  WEATHER ACROSS EASTERN NORTH DAKOTA  *****

CITY           SKY/WX    TMP DP  RH WIND       PRES   REMARKS
GRAND FORKS    SNOW      30  27  88 NE20      29.41F VSB 1/2 WCI  17
GRAND FRKS AFB SNOW      29  28  97 NE20      29.42F VSB 1/2 WCI  16
GRAND FRKS NWS   N/A     28 N/A N/A NE12        N/A  WCI  18
DEVILS LAKE    FLURRIES  27  26  96 N22G31    29.49S WCI  13
FARGO          CLOUDY    33  31  92 SW18G26   29.39F FOG     WCI  22
WAHPETON ARPT  CLOUDY    28  23  80 W36G45    29.50R WCI  12
$$

 ***** WEATHER ACROSS CENTRAL AND WESTERN NORTH DAKOTA  *****

CITY           SKY/WX    TMP DP  RH WIND       PRES   REMARKS
BISMARCK       LGT SNOW  14  11  87 W29G43    29.69S FOG     WCI  -7
MINOT          LGT SNOW  23  21  92 NW22G31   29.65R VSB 3/4 WCI   8
JAMESTOWN      LGT SNOW  20  17  88 W20G29    29.50R VSB 1   WCI   4
MINOT AFB      NOT AVBL
GARRISON         N/A     15  12  88 NW39G54   29.65S WCI  -8
WILLISTON      LGT SNOW  11   6  81 NW28G39   29.90R VSB 1   WCI -10
DICKINSON      LGT SNOW   5   1  83 W36G45    29.79S VSB 3/4 WCI -21
HETTINGER      CLOUDY     7   1  76 W35G44    29.83S HAZE    WCI -18
$$

 *****  OTHER AIRPORT OBSERVATIONS IN OUR AREA  *****

CITY           SKY/WX    TMP DP  RH WIND       PRES   REMARKS
WALHALLA       FLURRIES  28  28 100 N18G25    29.57F WCI  16
GRAFTON AIRPOR SNOW      30  30 100 N17       29.49F VSB 1/2 WCI  18
VALLEY CITY AR CLOUDY    23  23 100 W21G31    29.47S FOG     WCI   8
CANDO          LGT SNOW  27  27 100 NE18G26   29.56F WCI  13
CAVALIER APRT    N/A     30  28  93 N16G24    29.53F WCI  19
GWINNER          N/A     23  19  86 W24G31    29.55R WCI   7
SHEYENNE NWR     N/A     26  21  82 W22       29.95S WCI  12
ROLLA          LGT SNOW  25  25 100 NE25      29.58F WCI   9
 ***** THE ABOVE OBSERVATIONS ARE NON NWS ARE NOT QUALITY
       CONTROLLED AND MAY MIS-REPORT RAIN FOR SNOW...
$$

  *****  WEATHER ACROSS NORTHERN MINNESOTA  *****

CITY           SKY/WX    TMP DP  RH WIND       PRES   REMARKS
FLAG ISLAND    FLURRIES  30  27  86 E13G20    29.55F WCI  20
WARROAD        LGT SNOW  30  27  86 NE23G29   29.52F WCI  17
ROSEAU         LGT SNOW  30  27  86 NE20G25   29.49F WCI  18
HALLOCK        LGT SNOW  30  28  93 NE18      29.49F VSB 1   WCI  18
THF RVR FALLS  LGT SNOW  28  28 100 NE16      29.40F FOG     WCI  17
BAUDETTE       LGT SNOW  29  27  92 E15       29.50F VSB 1   WCI  18
WASKISH        CLOUDY    30  30 100 E15G21    29.45F FOG     WCI  19
CROOKSTON      LGT SNOW  30  28  93 E14       29.39F WCI  20
$$
  *****  WEATHER ACROSS CENTRAL AND WEST MINNESOTA  *****

CITY           SKY/WX    TMP DP  RH WIND       PRES   REMARKS
FOSSTON        MIX PCPN  30  30 100 E7        29.38F WCI  23
BEMIDJI        CLOUDY    33  32  96 SE15G21   29.41S WCI  23
PARK RAPIDS    CLOUDY    35  31  85 S20G25    29.41S WCI  24
ELBOW LAKE     CLOUDY    28  25  89 SW30G39   29.55R WCI  12
WADENA         CLOUDY    32  30  93 SW21G30   29.46R WCI  20
DETROIT LAKES  CLOUDY    32  32 100 SW15      29.41S FOG     WCI  22
MOORHEAD       CLOUDY    30  30 100 SW18      29.41S FOG     WCI  18
FERGUS FALLS   CLOUDY    28  27  93 W24G36    29.54R WCI  14
MORRIS MN      CLOUDY    28  23  80 W29G38    29.59R WCI  13
STAPLES        CLOUDY    34  30  86 SW16G24   29.49R WCI  23
$$
  *****  WEATHER ELSEWHERE ACROSS MINNESOTA  *****

CITY           SKY/WX    TMP DP  RH WIND       PRES   REMARKS
DULUTH         FLURRIES  34  32  92 SE16      29.61F WCI  24
INTRNTL FALLS  LGT SNOW  30  27  88 E14       29.56F VSB 3/4 WCI  19
ELY            LGT SNOW  32  30  93 SE9       29.63S WCI  24
CLOQUET        CLOUDY    34  30  86 SE7       29.60F
WHEATON        CLOUDY    27  21  80 W29G35    29.61R WCI  11
BRAINERD       CLOUDY    36  31  82 S20G29    29.50S
HIBBING        MIX PCPN  32  31  96 SE13      29.56F WCI  22
ALEXANDRIA     CLOUDY    29  26  89 W23G31    29.56R WCI  15
SAINT CLOUD    CLOUDY    35  29  78 SW15G26   29.60R
MINNEAPOLIS    CLOUDY    39  33  79 S13       29.66S
$$

  *****  WEATHER ACROSS SOUTH DAKOTA  *****

CITY           SKY/WX    TMP DP  RH WIND       PRES   REMARKS
SIOUX FALLS    MOCLDY    26  19  74 W21G31    29.79R WCI  12
BROOKINGS      CLOUDY    22  17  81 W26G35    29.71R WCI   5
WATERTOWN      CLOUDY    20  14  77 W32G40    29.67S WCI   1
HURON          MOCLDY    18  11  74 W25G37    29.82R WCI   0
SISSETON         N/A     23  16  74 W29G43    29.57R WCI   6
ABERDEEN       PTCLDY    17   9  70 W21G32    29.71R WCI   0
MITCHELL       PTCLDY    22  13  68 NW25G36   29.86R WCI   5
PIERRE         CLOUDY    15   6  67 NW31G44   29.88R WCI  -6
MOBRIDGE       CLEAR     13   5  70 NW30G41   29.75R BLWGSNOWWCI  -8
RAPID CITY     CLEAR     17   4  56 NW17      29.88R WCI   1
$$

  *****  SOME WEATHER IN NEARBY STATES *****

CITY           SKY/WX    TMP DP  RH WIND       PRES   REMARKS
GLASGOW MT     CLOUDY     7   0  73 W28       30.05R WCI -16
GREAT FALLS MT MOCLDY     2  -2  83 W6        30.09S WCI  -9
CHEYENNE WY    CLEAR     14  -8  37 NW17G25   29.88S WCI  -3
SCOTTSBLUFF NE CLEAR     17   6  62 W16       29.95R WCI   2
OMAHA NE       FLURRIES  35  29  78 N15       29.83R
DES MOINES IA  CLOUDY    39  35  86 S10       29.78R
DAVENPORT IA   CLOUDY    32  30  92 SE17      29.86F WCI  21
CHICAGO IL     CLOUDY    33  32  96 SE8       29.93F FOG
EAU CLAIRE WI  CLOUDY    36  30  79 S16       29.74S
LA CROSSE WI   CLOUDY    36  31  82 S12       29.81R
$$

  *****  SOME NATIONAL WEATHER *****

CITY           SKY/WX    TMP DP  RH WIND       PRES   REMARKS
LA GUARDIA NY  MOCLDY    45  31  58 NW8       30.10R
RALEIGH NC     LGT RAIN  49  45  86 E6        30.08R
ATLANTA GA     DRZL/FOG  52  52 100 E10       29.84F VSB 1/2
NEW ORLEANS LA CLOUDY    65  65 100 S7        29.69F
OKLAHOMA CITY  MOCLDY    41  40  96 SE6       29.71R
ALBUQUERQUE NM CLOUDY    39  16  39 CALM      29.90R
SALT LAKE CITY MOCLDY    28   5  37 SE6       30.00F WCI  22
LOS ANGELES CA PTCLDY    56  53  90 E3        29.96R
BOISE ID       CLEAR     25  14  63 SE9       30.01F WCI  15
SEATTLE WA     PTCLDY    35  33  92 SE8       30.01R
$$

*** WEATHER ACROSS MANITOBA...SASKATCHEWAN AND ONTARIO ***
                ***ONTARIO***

CITY           SKY/WX    TMP DP  RH WIND       PRES   REMARKS
GERALDTON      CLOUDY    28  28 100 SE2       29.88S
THUNDER BAY    FLURRIES  36  30  80 E12       29.81F
SIOUX LOOKOUT  CLOUDY    30  27  86 E7        29.72F WCI  23
TORONTO        PTCLDY    36  30  80 W9        30.08R
BIG TROUT LK   FLURRIES  25  23  93 VRB2      29.88F
PICKLE LAKE    NOT AVBL
DRYDEN         CLOUDY    30  27  86 E13G21    29.66F WCI  20
KENORA         FLURRIES  28  27  93 E14G20    29.60F WCI  17
$$
                *** MANITOBA***

CITY           SKY/WX    TMP DP  RH WIND       PRES   REMARKS
BRANDON        LGT SNOW  25  23  93 NE23      29.68S DRFTSNOWWCI  10
DAUPHIN        LGT SNOW  23  21  93 N21       29.81F WCI   8
ISLAND LAKE    NOT AVBL
PILOT MOUND      N/A     27  25  93 NE14G23     N/A  WCI  15
THE PAS        CLOUDY    18  12  79 W14       29.93R WCI   4
THOMPSON       FLURRIES  23  21  93 NE2       29.89R
WINNIPEG       CLOUDY    30  27  86 NE20G26   29.63F WCI  18
LYNN LAKE      LGT SNOW  19  19 100 N3        29.87R
CHURCHILL      MOCLDY    23  21  93 NW6       29.95S WCI  16
GILLAM         FLURRIES  19  16  86 N3        29.93R
$$
                ***SASKATCHEWAN***

CITY           SKY/WX    TMP DP  RH WIND       PRES   REMARKS
ESTEVAN        SNOW      12   9  85 NW33      29.83R VSB 1/4 WCI -10
KINDERSLEY     LGT SNOW   1  -4  78 NW18G24   30.10S BLWGSNOWWCI -19
LLOYDMINSTER   PTCLDY    -2  -8  78 NW15G21   30.14R WCI -22
PRINCE ALBERT  FLURRIES   9   0  66 NW12G18   30.03S WCI  -6
REGINA         FLURRIES   9   3  78 NW20G25   29.98R WCI -11
YORKTON        FLURRIES  14  10  85 NW15      29.88R WCI  -1
N. BATTLEFORD  CLOUDY     3  -4  72 NW22G28   30.12S WCI -19
LA RONGE       FLURRIES   5   0  78 W13       30.04R WCI -12
SASKATOON      FLURRIES   7  -2  66 NW18      30.08R WCI -12
SWIFT CURRENT  CLEAR     -2  -6  84 NW18G24   30.01S WCI -24
$$
NOTE: THESE ARE AUTOMATED STATIONS WITH LIMITED QUALITY CONTROL
      "FAIR" INDICATES FEW OR NO CLOUDS BELOW 12,000 FEET WITH NO
      SIGNIFICANT WEATHER AND/OR OBSTRUCTIONS TO VISIBILITY.
      SKY/WX - SKY CONDITION AND SIGNIFICANT WEATHER.
      TMP - AIR TEMPERATURE.    DP   - DEWPOINT TEMPERATURE.
      RH  - RELATIVE HUMIDITY.  PRES - PRESSURE.
      HX  - HEAT INDEX.         WCI  - WIND CHILL INDEX.
$



USA.gov is the U.S. government's official web portal to all federal, state and local government web resources and services.